Flag for Pakistan Weather past 2 weeks in Lahore, Pakistan

Now
70 °F

Scattered clouds.


Feels Like: 70 °F
Forecast: 56 / 61 °F
Wind: 8 mph from Northeast

Location: Lahore Airport

Current Time: Feb 28, 2015 at 5:55:14 PM

Latest Report: Feb 28, 2015 at 5:25 PM


Visibility: 4 mi

Pressure: 29.98 "Hg

Humidity: 43%

Dew point: 46 °F

Location of LahoreLocation

Historic Weather in Lahore — Graph

°F

Lahore temperature yesterday

Maximum temperature yesterday: 73 °F (at 12:55 PM)
Minimum temperature yesterday: 48 °F (at 6:25 AM)
Average temperature yesterday: 62 °F

Past Weeks' High & Low Weather Summary

 TemperatureHumidityPressure
High82 °F (Feb 15, 2:25 PM)100% (Feb 16, 5:30 PM)30.09 "Hg (Feb 16, 5:30 PM)
Low48 °F (Feb 27, 6:25 AM)25% (Feb 26, 2:55 PM)29.68 "Hg (Feb 25, 4:55 AM)
Average65 °F67%29.92 "Hg
* Reported Feb 13 4:25 PM — Feb 28 4:25 PM, Lahore, Weather by CustomWeather, © 2015

Note: Actual official high and low records may vary slightly from our data, if they occured in-between our weather recording intervals... More about our weather records

Advertising

Lahore weather history for previous 24 hours

 ConditionsComfort  
Time TempWeatherWind HumidityBarometerVisibility
4:25 PM
Sat, Feb 28
70 °FScattered clouds.9 mph43%29.98 "Hg4 mi
3:55 PM72 °FScattered clouds.8 mph36%29.98 "Hg4 mi
3:25 PM72 °FScattered clouds.8 mph33%30.01 "Hg4 mi
2:55 PM72 °FScattered clouds.7 mph33%30.01 "Hg4 mi
2:25 PM73 °FScattered clouds.8 mph31%30.01 "Hg4 mi
1:55 PM72 °FScattered clouds.7 mph33%30.01 "Hg4 mi
1:25 PM72 °FScattered clouds.7 mph33%30.01 "Hg4 mi
12:55 PM72 °FScattered clouds.5 mph33%30.04 "Hg4 mi
12:25 PM70 °FScattered clouds.6 mph38%30.04 "Hg4 mi
11:55 AM68 °FScattered clouds.6 mph40%30.04 "Hg4 mi
11:25 AM68 °FScattered clouds.9 mph43%30.04 "Hg4 mi
10:55 AM66 °FScattered clouds.9 mph46%30.07 "Hg3 mi
10:25 AM64 °FScattered clouds.7 mph52%30.07 "Hg2 mi
9:55 AM64 °FScattered clouds.7 mph52%30.07 "Hg2 mi
9:25 AM61 °FScattered clouds.6 mph55%30.07 "Hg2 mi
8:55 AM59 °FScattered clouds.5 mph59%30.07 "Hg2 mi
8:30 AM55 °FScattered clouds.5 mph72%30.04 "Hg2 mi
8:00 AM54 °FScattered clouds.3 mph77%30.04 "Hg2 mi
7:30 AM52 °FScattered clouds.3 mph77%30.01 "Hg2 mi
7:00 AM50 °FScattered clouds.3 mph82%30.01 "Hg2 mi
6:30 AM50 °FPassing clouds.No wind82%30.01 "Hg2 mi
6:00 AM50 °FPassing clouds.No wind82%30.01 "Hg2 mi
4:59 AM52 °FClear.5 mph77%29.98 "Hg2 mi
4:25 AM54 °FClear.3 mph72%29.98 "Hg2 mi
3:55 AM55 °FClear.No wind72%29.98 "Hg2 mi
3:25 AM55 °FClear.No wind72%29.98 "Hg2 mi
2:55 AM55 °FClear.No wind72%30.01 "Hg2 mi
2:25 AM55 °FClear.No wind77%30.01 "Hg2 mi
1:55 AM57 °FClear.No wind77%30.01 "Hg2 mi
1:25 AM57 °FClear.No wind72%30.01 "Hg2 mi
12:55 AM59 °FClear.No wind68%30.01 "Hg2 mi
12:25 AM61 °FPassing clouds.No wind63%30.01 "Hg2 mi
11:55 PM
Fri, Feb 27
61 °FPassing clouds.No wind63%30.01 "Hg2 mi
11:25 PM61 °FPassing clouds.No wind63%30.01 "Hg2 mi
10:55 PM61 °FPassing clouds.3 mph63%30.01 "Hg2 mi
10:25 PM63 °FPassing clouds.No wind59%30.01 "Hg2 mi
9:55 PM63 °FPassing clouds.2 mph59%30.01 "Hg2 mi
9:25 PM63 °FPassing clouds.No wind56%30.01 "Hg2 mi
8:55 PM63 °FPassing clouds.3 mph56%30.01 "Hg2 mi
8:25 PM63 °FPassing clouds.3 mph52%29.98 "Hg3 mi
7:55 PM63 °FPassing clouds.5 mph52%29.98 "Hg3 mi
7:25 PM64 °FPassing clouds.No wind46%29.98 "Hg3 mi
6:55 PM64 °FPassing clouds.3 mph46%29.98 "Hg3 mi
6:25 PM66 °FPassing clouds.5 mph43%29.95 "Hg3 mi
5:55 PM66 °FScattered clouds.5 mph43%29.95 "Hg3 mi
5:25 PM66 °FScattered clouds.3 mph43%29.95 "Hg3 mi
Weather by CustomWeather, © 2015

See weather overviewHow to use our weather pages